Flag for Morocco Weather past 2 weeks in Casablanca, Morocco

Now
63 °F

Passing clouds.


Feels Like: 63 °F
Forecast: 61 / 68 °F
Wind: 6 mph from Northeast

Location: Casablanca Airport


UV Index: 7 (High)

Visibility: N/A


Pressure: 30.01 "Hg

Humidity: 77%

Dew point: 55 °F

Location of CasablancaLocation

Historic Weather in Casablanca

°F

Casablanca temperature yesterday

Maximum temperature yesterday: 70 °F (at 12:00 PM)
Minimum temperature yesterday: 63 °F (at 12:00 AM)
Average temperature yesterday: 65 °F

Past Weeks' High & Low Weather Summary

 TemperatureHumidityPressure
High90 °F (Apr 8, 7:00 PM)100% (Apr 6, 7:00 AM)30.21 "Hg (Apr 6, 7:00 AM)
Low48 °F (Apr 4, 6:00 AM)35% (Apr 9, 11:00 AM)29.65 "Hg (Apr 2, 8:00 AM)
Average65 °F76%29.97 "Hg
* Reported Apr 2 1:00 AM — Apr 17 1:00 AM, Casablanca, Weather by CustomWeather, © 2014

Note: Actual official high and low records may vary slightly from our data, if they occured in-between our weather recording intervals... More about our weather records

Advertising

Historic Weather Conditions — Data for Previous 24 hours

 ConditionsComfort  
Time TempWeatherWind HumidityBarometerVisibility
1:00 AM
Apr 17
63 °FPassing clouds.6 mph77%30.04 "HgN/A
12:00 AM63 °FPassing clouds.7 mph83%30.01 "HgN/A
11:00 PM
Apr 16
63 °FPassing clouds.6 mph83%30.01 "HgN/A
10:00 PM63 °FPassing clouds.7 mph83%30.01 "HgN/A
9:00 PM63 °FPassing clouds.8 mph83%30.01 "HgN/A
8:00 PM64 °FPassing clouds.8 mph78%30.01 "HgN/A
7:00 PM64 °FPartly sunny.9 mph78%30.01 "HgN/A
6:00 PM64 °FPartly sunny.10 mph78%29.98 "HgN/A
5:00 PM66 °FPartly sunny.10 mph73%29.98 "HgN/A
4:00 PM66 °FPartly sunny.10 mph68%29.98 "HgN/A
3:00 PM68 °FPassing clouds.9 mph64%30.01 "HgN/A
2:00 PM66 °FScattered clouds.9 mph73%30.04 "HgN/A
1:00 PM68 °FPartly sunny.14 mph69%30.04 "HgN/A
12:00 PM70 °FScattered clouds.7 mph64%30.04 "HgN/A
11:00 AM66 °FPartly sunny.7 mph73%30.04 "HgN/A
10:00 AM64 °FPartly sunny.9 mph78%30.04 "HgN/A
9:00 AM64 °FBroken clouds.5 mph78%30.04 "HgN/A
8:00 AM63 °FBroken clouds.6 mph83%30.04 "HgN/A
7:00 AM63 °FBroken clouds.5 mph83%30.01 "Hg4 mi
3:00 AM63 °FPassing clouds.7 mph88%30.04 "HgN/A
2:00 AM63 °FPassing clouds.8 mph88%30.04 "HgN/A
Weather by CustomWeather, © 2014

See weather overview